Weather in Zyuzino

Russia / Astrakhan Oblast     45°45′08″N   47°39′41″E
temp.,
°C
wind,
m/s
gust,
m/s
humid.,
%
clouds,
%
prec.,
mm/h
press.,
hPa
HPBL,
m
5 august, thu
thu501:00+26n2263100 0.0 101214
04:00+25ne1161100 0.0 101111
07:00+28n494577 0.0 1012284
10:00+34nne5630100 0.1 1012880
13:00+38nne222288 0.0 10112356
16:00+38ssw13247 0.0 10101661
19:00+26ne9146177 0.5 1012353
22:00+26nne49506 1.4 1011139
6 august, fri
fri601:00+25nne4115215 0.0 1011232
04:00+23ne4104119 0.0 1012175
07:00+25ene410365 0.0 1012255
10:00+34ene55225 0.0 1012939
13:00+36se54210 0.0 10111893
16:00+34se77270 0.0 1010716
19:00+31ese58360 0.0 1009410
22:00+26e48490 0.0 1009149
7 august, sat
sat701:00+26ene49480 0.0 1009157
04:00+25ene513460 0.0 1009321
07:00+28e714420 0.0 1009555
10:00+34e911255 0.0 1009896
13:00+37ese910200 0.0 10081102
16:00+37e910205 0.0 10081052
19:00+33e913280 0.0 1007585
22:00+29e715340 0.0 1008365
8 august, sun
sun801:00+29e7163941 0.0 1008396
04:00+29e7164723 0.0 1008439
07:00+31ese81644100 0.0 1008601
10:00+34se9143399 0.0 1008718
13:00+35se7103439 0.0 1008638
16:00+34se710385 0.0 1008498
19:00+30se610545 0.0 1008303
22:00+27se47765 0.0 1009134
9 august, mon
mon901:00+27s337397 0.0 100944
04:00+26sse227323 0.0 100913
07:00+29wnw23575 0.0 100990
10:00+37nnw55265 0.0 1009983
13:00+40nnw432056 0.0 10101930
16:00+40nne12195 0.0 10091768
19:00+32s57471 0.0 1009227
22:00+29ssw3356100 0.1 101045